Location: Stara Lesna
(49.1528°N, 20.2911°E)
Time: 18:24:19
(UTC+02:00)

Cosmos 389 Rocket - Pass Details

Date: 13 July 2020
Orbit: 442 x 477 km, 81.1° (Epoch: 11 August)

Event Time Altitude Azimuth Distance (km) Brightness Sun altitude
Rises 00:51:27 0° 348° (NNW) 2,485 7.6 -19.0°
Reaches altitude 10° 00:53:33 10° 348° (NNW) 1,600 6.3 -19.0°
Maximum altitude 00:57:03 88° 258° (WSW) 457 2.3 -19.0°
Enters shadow 00:57:29 67° 173° (S) 494 2.3 -19.0°
